Find Starlink 34870

NORAD ID: 65370 Int'l Des: 2025-190 Owner: SPXS Country: US Constellation: starlink operational
LEOCIRCULAR

リアルタイム位置

3D地球を読み込み中...

Starlink 34870について

説明を読み込み中...

次回通過

Passes for default location (London). Set your location on the main map for personalized predictions.

高度履歴

Loading altitude history...

軌道要素

1 65370U 25190V 26104.01053191 .00015698 00000-0 54104-3 0 9997
2 65370 53.1602 4.0695 0001480 91.0710 269.0460 15.30199579 34693
Epoch: Apr 14, 2026 • Age: 19 hours

現在のステータス

高度 475.0 km
速度 7.63 km/s
衛星直下点 17.99°N, 27.09°E
打ち上げ日 Aug 28, 2025
運用期間 0.6 years
タイプ internet

技術仕様

分類 Payload
質量 575.00 kg
乾燥質量 530.00 kg
総質量 575.00 kg
長さ 0.30 m
直径 4.10 m
スパン 29.00 m
形状 Box + pan
製造者 SPXS
バスタイプ Starlink V2MO
フェーズステータス In Orbit
所有者/国 SPXS/US

Most Searched